Ocala, FL

1:42 PM EST on January 17, 2017 (GMT -0500)
Ocala Regional-Taylor

Weather History for KOCF - December, 2012

Change the Weather History Date:

Saturday, December 15, 2012

  Actual Average Record
Temperature  
Mean Temperature 64 °F -  
Max Temperature 78 °F 67 °F 84 °F (2007)
Min Temperature 51 °F 44 °F 21 °F (2010)
Growing Degree Days 14 (Base 50)    
Moisture  
Dew Point 49 °F    
Average Humidity 66    
Maximum Humidity 77    
Minimum Humidity 42    
Precipitation  
Precipitation 0.00 in - - ()
Sea Level Pressure  
Sea Level Pressure 30.12 in    
Wind  
Wind Speed 3 mph (NE)    
Max Wind Speed 6 mph    
Max Gust Speed -    
Visibility 10 miles    
Events      
Averages and records for this station are not official NWS values.
T = Trace of Precipitation, MM = Missing Value Source: NWS Daily Summary

Daily Weather History Graph

Daily Weather History Graph

Search for Another Location

Airport or City:

Trip Planner

Search our weather history database for the weather conditions in past years. The results will help you decide how hot, cold, wet, or windy it might be!

Date:

Astronomy

Dec. 15, 2012 Rise Set
Actual Time 7:15 AM EST 5:33 PM EST
Civil Twilight 6:49 AM EST 5:59 PM EST
Nautical Twilight 6:19 AM EST 6:28 PM EST
Astronomical Twilight 5:50 AM EST 6:57 PM EST
Moon 9:15 AM EST (12/15) 8:26 PM EST (12/15)
Length of Visible Light 11h 09m
Length of Day
10h 17m
Waxing Crescent, 8% of the Moon is Illuminated
Dec 15
Waxing Crescent
Dec 20
First Quarter
Dec 28
Full
Jan 4
Last Quarter
Jan 11
New

Hourly Weather History & Observations

Time (EST) Temp. Dew Point Humidity Pressure Visibility Wind Dir Wind Speed Gust Speed Precip Events Conditions
12:15 AM 53.6 °F 44.6 °F 72% 30.15 in 10.0 mi Calm Calm - N/A   Mostly Cloudy
12:35 AM 53.6 °F 44.6 °F 72% 30.15 in 10.0 mi NE 4.6 mph - N/A   Overcast
12:55 AM 53.6 °F 44.6 °F 72% 30.14 in 10.0 mi North 5.8 mph - N/A   Overcast
1:15 AM 53.6 °F 44.6 °F 72% 30.14 in 10.0 mi NNE 4.6 mph - N/A   Overcast
1:35 AM 53.6 °F 44.6 °F 72% 30.14 in 10.0 mi NNE 4.6 mph - N/A   Overcast
1:55 AM 55.4 °F 44.6 °F 67% 30.15 in 10.0 mi NE 3.5 mph - N/A   Overcast
2:15 AM 55.4 °F 44.6 °F 67% 30.15 in 10.0 mi NNE 5.8 mph - N/A   Overcast
2:35 AM 55.4 °F 44.6 °F 67% 30.15 in 10.0 mi North 5.8 mph - N/A   Overcast
2:55 AM 53.6 °F 44.6 °F 72% 30.15 in 10.0 mi NNE 4.6 mph - N/A   Scattered Clouds
3:15 AM 53.6 °F 46.4 °F 77% 30.15 in 10.0 mi NE 3.5 mph - N/A   Mostly Cloudy
3:35 AM 55.4 °F 46.4 °F 72% 30.14 in 10.0 mi NE 5.8 mph - N/A   Overcast
3:55 AM 55.4 °F 46.4 °F 72% 30.13 in 10.0 mi NE 5.8 mph - N/A   Overcast
4:15 AM 55.4 °F 46.4 °F 72% 30.12 in 10.0 mi ENE 4.6 mph - N/A   Overcast
4:35 AM 55.4 °F 46.4 °F 72% 30.10 in 10.0 mi NE 4.6 mph - N/A   Overcast
4:55 AM 53.6 °F 46.4 °F 77% 30.10 in 10.0 mi Calm Calm - N/A   Scattered Clouds
5:15 AM 53.6 °F 44.6 °F 72% 30.10 in 10.0 mi Calm Calm - N/A   Clear
5:35 AM 51.8 °F 44.6 °F 76% 30.13 in 10.0 mi North 4.6 mph - N/A   Clear
5:55 AM 51.8 °F 44.6 °F 76% 30.14 in 10.0 mi Calm Calm - N/A   Clear
6:15 AM 51.8 °F 42.8 °F 71% 30.15 in 9.0 mi NNE 3.5 mph - N/A   Clear
6:35 AM 51.8 °F 42.8 °F 71% 30.16 in 8.0 mi North 3.5 mph - N/A   Clear
6:50 AM 51.8 °F 42.8 °F 71% 30.16 in 7.0 mi NNE 3.5 mph - N/A   Clear
7:50 AM 51.8 °F 44.6 °F 76% 30.16 in 7.0 mi North 3.5 mph - N/A   Clear
8:50 AM 55.4 °F 46.4 °F 72% 30.17 in 10.0 mi ENE 4.6 mph - N/A   Clear
9:50 AM 62.6 °F 50.0 °F 63% 30.18 in 10.0 mi East 5.8 mph - N/A   Clear
10:50 AM 69.8 °F 53.6 °F 56% 30.18 in 10.0 mi ENE 4.6 mph - N/A   Clear
11:50 AM 73.4 °F 55.4 °F 53% 30.15 in 10.0 mi Calm Calm - N/A   Clear
1:50 PM 75.2 °F 53.6 °F 47% 30.09 in 10.0 mi SSE 4.6 mph - N/A   Scattered Clouds
2:50 PM 78.8 °F 53.6 °F 42% 30.08 in 10.0 mi Calm Calm - N/A   Scattered Clouds
3:50 PM 77.0 °F 53.6 °F 44% 30.07 in 10.0 mi ESE 3.5 mph - N/A   Scattered Clouds
4:50 PM 75.2 °F 53.6 °F 47% 30.08 in 10.0 mi SE 3.5 mph - N/A   Scattered Clouds
5:50 PM 69.8 °F 53.6 °F 56% 30.08 in 10.0 mi Calm Calm - N/A   Partly Cloudy
6:50 PM 69.8 °F 53.6 °F 56% 30.08 in 10.0 mi Calm Calm - N/A   Scattered Clouds
7:55 PM 66.2 °F 53.6 °F 64% 30.10 in 10.0 mi East 3.5 mph - N/A   Mostly Cloudy
8:15 PM 69.8 °F 53.6 °F 56% 30.10 in 10.0 mi ESE 3.5 mph - N/A   Scattered Clouds
8:35 PM 69.8 °F 53.6 °F 56% 30.10 in 10.0 mi Calm Calm - N/A   Clear
8:55 PM 68.0 °F 53.6 °F 60% 30.10 in 10.0 mi Calm Calm - N/A   Clear
9:15 PM 66.2 °F 53.6 °F 64% 30.11 in 10.0 mi Calm Calm - N/A   Clear
9:35 PM 66.2 °F 53.6 °F 64% 30.09 in 10.0 mi Calm Calm - N/A   Clear
9:55 PM 66.2 °F 53.6 °F 64% 30.09 in 10.0 mi ESE 3.5 mph - N/A   Clear
10:15 PM 66.2 °F 53.6 °F 64% 30.09 in 10.0 mi Calm Calm - N/A   Clear
10:35 PM 64.4 °F 53.6 °F 68% 30.09 in 10.0 mi East 3.5 mph - N/A   Clear
10:55 PM 64.4 °F 51.8 °F 64% 30.09 in 10.0 mi Calm Calm - N/A   Clear
11:15 PM 62.6 °F 51.8 °F 68% 30.09 in 10.0 mi Calm Calm - N/A   Clear
11:35 PM 62.6 °F 51.8 °F 68% 30.08 in 10.0 mi Calm Calm - N/A   Clear
11:55 PM 60.8 °F 51.8 °F 72% 30.08 in 10.0 mi Calm Calm - N/A   Clear